Location: Newark
(50.0821°N, 8.2414°E)
Time: 11:44:06
(UTC+00:00)

Envisat - Pass Details

Date: 30 August 2019
Orbit: 764 x 766 km, 98.1° (Epoch: 23 September)

Event Time Altitude Azimuth Distance (km) Brightness Sun altitude
Rises 19:04:20 0° 215° (SW) 3,223 6.4 -8.1°
Reaches altitude 10° 19:07:40 10° 239° (WSW) 2,303 6.0 -8.6°
Maximum altitude 19:10:31 15° 273° (W) 1,981 6.3 -9.0°
Drops below altitude 10° 19:13:23 10° 308° (NW) 2,313 7.0 -9.4°
Sets 19:16:45 0° 331° (NNW) 3,245 7.3 -9.9°
